Theta_e
340 341 341 338 336 336 339 341 341 340 342 342 343 337 337 339 337 332 334 332 331 332 330 333 333 335 331 328 331 334 335 337 339 337 338 336 337 341 343 342 342 341 339 338 337 335 336 334 333 332 331 331 330 329 330 329 329 329 332 334 337 335 334 332 331 330 329 328 328 328 327 327 327 327 327 327 326 326 326 326 326 325 325 325 325
338 339 339 338 337 338 339 339 338 341 341 341 342 339 337 338 337 333 333 330 330 331 331 329 328 330 328 329 327 330 334 334 335 337 338 337 336 341 343 341 342 342 343 339 338 336 336 334 334 334 333 331 332 330 330 329 329 329 330 333 335 335 334 333 332 331 328 327 326 326 327 327 327 326 326 326 326 325 325 325 325 325 324 324 324
341 338 338 337 336 338 335 338 336 339 339 336 338 336 338 338 335 338 334 333 330 330 329 327 327 327 328 326 325 328 330 333 334 335 335 338 336 338 341 342 341 340 342 341 340 338 336 335 335 334 334 333 332 331 331 330 329 330 330 331 333 334 334 333 332 331 330 328 327 326 326 326 326 327 326 326 325 324 324 324 323 324 324 323 323
341 341 338 336 336 336 336 337 338 341 338 337 338 336 334 335 336 338 336 340 332 331 329 330 327 325 325 326 325 327 327 333 331 333 334 336 336 335 338 340 340 340 340 341 341 341 338 337 336 334 334 333 333 332 331 331 330 330 330 328 330 332 334 334 333 331 330 328 327 327 327 326 326 325 326 325 325 325 324 324 323 323 323 324 323
342 340 340 337 337 337 337 338 339 339 338 335 334 334 335 334 337 335 334 333 332 332 333 328 327 326 327 327 325 324 326 329 331 333 332 335 337 335 336 337 338 338 338 341 340 341 339 337 337 336 335 334 334 334 333 331 331 329 330 329 329 332 332 334 333 331 330 330 328 327 326 326 325 326 325 325 325 324 324 323 324 323 323 323 323
339 341 340 341 338 338 336 338 339 339 337 334 334 334 333 333 337 334 331 330 331 330 329 328 327 326 325 327 330 327 328 327 330 331 335 332 336 337 335 335 335 336 337 342 340 339 340 340 338 337 336 336 334 334 333 332 331 330 330 330 331 331 331 334 334 333 331 331 329 328 327 326 326 324 325 325 324 324 324 324 323 322 323 322 322
340 335 338 339 338 335 335 338 337 336 335 334 332 333 334 333 338 332 332 330 326 328 327 326 324 324 325 330 328 328 329 328 330 329 331 334 338 336 336 334 334 335 336 338 339 339 338 340 340 338 337 336 335 334 334 334 332 331 331 331 330 331 331 332 334 333 333 331 330 329 328 327 325 324 324 325 325 324 324 323 323 323 322 321 321
341 337 340 337 336 336 336 335 334 334 336 337 334 332 333 334 335 333 330 328 323 327 327 321 323 323 325 330 331 331 330 329 331 328 328 331 329 333 337 336 334 333 336 334 336 337 338 338 339 339 339 338 336 336 335 334 333 333 332 331 331 331 331 332 333 335 333 332 331 330 329 327 326 324 324 325 324 324 324 323 323 323 322 321 321
338 336 339 336 335 334 333 334 332 331 334 336 335 334 334 332 333 335 334 332 332 326 328 327 327 326 326 329 330 331 331 331 330 330 332 332 329 330 332 334 336 341 335 334 334 335 337 338 338 338 337 338 339 336 336 336 335 334 333 332 332 332 332 332 333 333 334 333 332 330 330 328 327 326 324 324 324 324 324 323 323 322 322 322 321
341 337 338 336 337 334 333 333 332 333 335 333 332 335 334 332 332 335 335 333 332 332 328 329 328 327 329 325 324 328 331 332 333 332 330 329 329 330 329 331 332 337 337 336 335 334 335 336 337 336 337 336 338 338 337 336 336 336 335 335 334 334 333 333 332 333 334 334 333 331 330 329 327 327 326 325 325 324 324 324 323 322 322 322 321
338 339 339 337 333 333 333 333 333 334 334 333 332 334 334 332 333 334 335 334 332 332 331 331 330 332 332 330 331 330 330 332 331 332 331 330 330 331 328 332 334 332 335 336 338 337 334 334 335 335 335 336 337 338 338 339 337 337 336 336 335 336 335 334 333 333 334 335 335 333 331 330 328 327 327 326 325 324 324 324 323 323 322 322 321
333 333 334 332 333 334 333 334 333 334 332 331 332 332 332 332 331 331 332 332 333 333 333 331 331 330 329 331 334 335 332 331 331 331 330 330 329 330 329 328 331 330 333 332 333 337 336 333 335 334 335 335 336 336 337 337 337 338 337 337 337 336 336 336 334 333 334 333 335 334 333 331 329 328 328 327 325 325 324 324 323 324 323 322 321
331 336 337 334 338 335 334 334 335 334 332 331 332 332 333 332 332 333 330 329 330 332 332 330 328 326 330 330 331 332 335 331 328 327 328 330 331 329 329 329 330 332 330 332 332 333 338 335 333 333 333 334 334 334 334 334 334 337 339 338 338 338 338 337 336 334 333 333 333 335 334 333 330 329 328 328 327 326 325 324 323 323 323 321 321
333 333 332 336 330 334 331 332 332 333 334 333 332 332 332 331 331 330 330 329 328 331 331 326 323 322 320 323 327 333 334 332 329 329 326 328 329 331 329 329 327 328 335 334 333 332 332 337 336 335 334 335 334 333 334 334 334 336 338 339 339 339 339 339 338 336 335 334 333 334 335 333 331 330 329 328 328 327 326 325 323 323 323 322 321
332 332 336 327 332 332 331 331 331 333 332 331 332 330 330 330 331 328 327 329 329 331 330 329 324 325 324 321 319 319 327 329 332 331 330 329 331 331 329 328 329 330 329 330 329 331 329 330 335 336 336 336 337 334 333 334 334 334 336 338 340 340 340 339 340 339 337 336 335 334 335 334 332 331 330 329 328 327 326 325 324 323 323 322 321
328 325 324 328 328 328 327 327 331 333 334 330 330 329 329 329 329 329 328 325 326 327 330 329 327 324 317 318 318 318 314 319 323 331 333 334 332 332 331 329 330 330 332 331 331 328 331 328 329 333 332 332 337 336 334 333 334 333 332 334 336 336 340 341 340 341 338 337 336 335 336 335 333 332 331 330 329 328 327 326 324 324 323 323 322
329 327 324 325 325 327 331 334 325 331 327 331 330 329 329 330 330 329 328 326 323 327 327 329 328 329 323 318 316 314 315 320 323 326 332 331 330 333 334 330 329 330 329 331 332 332 331 331 333 335 337 337 336 337 336 335 334 336 334 334 334 335 338 340 342 341 339 339 338 337 336 336 334 333 332 331 330 328 328 327 325 324 324 323 323
325 325 325 327 330 327 326 325 325 325 324 326 322 327 324 323 331 330 328 328 325 323 324 327 328 326 328 326 323 317 317 321 321 315 328 331 331 331 332 332 333 334 332 331 331 332 332 331 333 333 334 334 336 336 336 337 339 336 335 334 331 330 329 333 340 342 342 339 339 338 337 338 335 334 333 331 330 329 328 328 327 325 324 324 324
328 327 327 326 326 327 328 328 326 328 326 326 323 323 322 322 323 324 325 327 327 322 323 324 326 326 326 327 326 325 323 319 316 319 314 319 328 328 330 331 331 332 332 331 332 332 335 334 335 334 333 333 335 336 335 336 334 333 336 334 330 328 325 324 328 338 342 341 339 339 338 339 337 334 333 332 331 330 329 328 328 327 326 324 324
329 326 325 324 326 326 328 323 324 323 319 318 318 319 323 323 323 325 325 323 323 325 325 324 322 321 326 324 322 324 325 324 324 320 316 314 318 328 330 329 329 331 331 331 332 334 332 334 333 334 334 332 334 334 334 336 338 335 335 328 327 328 325 324 321 321 329 339 341 340 339 339 339 336 334 332 331 330 329 329 328 328 327 326 324
324 325 323 324 324 324 323 322 319 318 318 317 319 320 320 320 322 322 320 322 322 323 322 319 321 319 323 324 323 322 322 323 321 321 319 314 315 318 321 328 329 329 330 332 332 332 332 333 333 331 335 333 334 335 336 338 337 333 333 324 326 325 325 323 319 319 319 327 337 341 340 339 339 338 335 334 332 331 330 329 329 328 328 327 325
327 324 324 321 324 323 322 323 323 322 321 321 320 320 320 321 322 321 321 321 320 319 319 319 320 318 319 321 320 323 322 321 321 321 321 320 314 316 319 319 318 323 329 329 331 330 331 332 332 331 330 333 334 334 333 333 338 337 331 324 325 325 323 321 316 316 316 322 331 337 341 340 338 337 338 335 335 333 331 331 330 330 329 328 327
324 325 325 323 324 324 324 322 325 325 322 320 321 321 323 322 321 320 320 319 319 320 319 318 319 315 315 315 314 314 315 315 316 317 316 315 315 315 318 321 318 319 326 328 328 327 328 329 329 329 329 329 331 332 331 332 332 334 325 326 325 325 322 320 318 315 315 323 328 334 338 341 339 338 337 337 335 335 334 333 332 331 330 330 329
325 325 324 325 324 324 326 325 324 325 324 325 325 323 322 320 321 322 321 321 321 320 318 317 318 317 315 315 316 318 315 313 314 314 313 312 311 309 309 309 314 316 327 326 325 324 326 326 327 327 327 327 329 330 330 333 334 328 327 322 324 320 319 320 319 318 315 321 325 329 335 339 340 340 338 336 338 337 336 335 334 332 331 331 331
324 322 325 326 325 325 326 324 322 322 324 321 321 323 320 321 321 319 318 318 317 317 316 316 316 316 317 316 315 313 312 315 316 314 314 314 313 309 310 310 308 308 312 324 320 323 324 325 327 328 328 328 329 328 331 332 332 324 323 324 320 319 318 317 316 315 313 312 317 324 328 333 338 340 340 338 337 337 337 334 329 324 324 327 329
322 323 323 325 325 325 327 325 323 323 321 323 324 323 325 318 321 321 319 320 321 319 318 318 317 317 318 313 313 313 315 318 316 318 318 313 309 307 306 308 308 307 308 308 313 317 321 323 323 321 322 327 329 329 331 332 328 321 323 330 321 319 318 315 314 314 311 311 309 312 316 321 326 330 332 335 334 327 325 323 321 319 318 319 324
322 325 323 324 326 325 327 323 323 323 323 323 324 323 323 318 318 321 320 321 319 318 317 317 317 316 315 316 318 313 314 311 314 312 312 313 313 310 308 304 305 307 307 308 308 310 312 321 320 319 318 319 325 330 330 331 328 322 320 326 331 318 315 315 314 312 311 311 310 310 311 313 316 317 319 318 317 318 321 323 321 319 317 317 318
324 325 323 323 326 325 325 323 323 323 323 323 322 321 321 321 319 321 318 319 319 318 317 317 317 316 315 316 315 312 314 313 312 312 313 313 313 318 314 308 303 301 304 305 307 308 311 309 315 315 315 317 321 328 327 329 330 322 324 329 330 327 318 314 313 311 310 310 309 308 309 310 311 312 313 316 319 320 320 319 319 317 316 316 317
326 326 323 324 325 324 323 323 323 322 322 322 323 321 320 322 319 319 319 320 320 319 320 318 317 319 316 316 317 313 311 316 313 313 314 314 313 312 312 312 310 304 302 302 303 305 308 310 308 311 314 314 314 318 322 324 323 323 328 328 329 326 324 315 312 311 311 308 306 306 307 308 310 311 312 315 317 318 318 317 316 315 316 319 318
327 326 325 324 325 325 324 323 322 322 321 320 320 320 320 321 319 319 319 320 319 318 320 318 317 317 316 314 315 313 313 315 315 316 316 313 314 313 311 311 312 308 306 303 303 307 307 310 310 309 312 312 313 315 315 314 318 321 320 320 320 320 313 313 312 311 311 309 306 307 308 308 308 309 311 314 316 316 315 315 314 314 317 319 317
327 325 325 323 324 324 324 323 322 321 321 320 321 319 318 320 317 319 319 318 318 317 318 317 318 318 315 316 315 315 315 315 316 316 316 317 312 310 310 311 311 310 308 307 302 307 311 308 310 312 311 312 313 313 315 316 316 315 317 319 317 314 311 314 311 312 312 311 310 309 311 312 309 309 310 312 314 315 313 314 316 316 315 316 314
325 326 324 323 323 323 322 322 323 321 320 319 319 320 318 319 315 317 316 316 317 316 315 317 315 317 313 313 312 312 312 311 312 314 315 314 314 313 312 311 310 311 310 308 304 304 310 309 310 311 311 311 312 311 311 313 315 315 315 315 318 314 317 317 312 310 310 310 310 310 310 310 310 308 307 308 311 312 312 313 314 313 313 312 313
325 325 324 323 321 322 322 321 321 321 320 319 319 319 316 318 316 317 316 314 315 315 315 314 316 315 313 314 312 313 313 311 313 312 311 311 312 312 311 310 309 310 308 307 304 304 307 311 309 309 311 312 309 311 310 311 312 313 313 313 315 315 315 315 317 313 310 308 307 308 308 309 310 309 305 304 307 308 308 309 310 309 310 311 309
327 324 323 324 323 322 321 320 320 321 320 319 318 318 317 316 317 318 318 314 313 313 314 312 312 315 315 311 312 312 312 311 310 307 308 307 306 305 308 310 307 310 310 308 305 303 302 306 307 309 308 309 307 309 309 310 311 313 313 312 313 313 312 311 311 314 308 308 306 306 306 307 307 306 306 304 304 306 307 307 307 307 307 307 307
325 324 323 324 323 321 321 321 320 320 320 319 319 318 317 316 316 316 318 314 313 314 314 313 312 311 312 311 311 311 313 311 311 311 311 310 309 306 306 307 307 308 307 307 305 303 303 304 307 307 307 309 309 308 308 310 310 310 308 309 310 312 313 311 311 313 309 306 305 305 305 305 306 306 306 306 305 304 304 305 305 305 305 304 305
322 324 324 323 322 321 320 320 320 320 320 321 320 318 317 316 316 316 316 315 315 314 314 312 311 312 311 311 311 312 311 310 310 310 310 310 310 309 307 306 306 307 308 310 310 307 306 305 306 307 308 307 307 309 309 309 308 308 309 308 309 309 310 311 311 311 310 307 307 307 306 306 306 306 305 305 305 304 304 305 304 305 304 304 304
324 324 324 323 321 320 321 320 320 320 320 320 319 318 318 318 317 316 316 314 314 314 314 313 315 312 312 311 311 310 310 309 308 308 309 310 307 307 306 305 305 307 308 307 306 304 303 302 303 306 307 306 307 307 308 307 308 308 309 308 308 308 308 310 313 312 308 308 308 308 307 307 307 307 306 306 305 305 304 304 304 304 304 304 304
322 324 323 323 321 320 320 320 320 319 320 320 319 318 318 318 317 317 316 315 315 314 314 314 312 313 311 311 312 311 310 308 309 308 308 307 307 306 305 305 304 304 305 305 305 304 304 302 302 302 304 305 305 306 307 307 306 306 306 307 308 309 308 308 309 311 312 312 315 317 308 306 306 306 307 307 306 305 305 305 304 304 304 304 304
324 323 322 321 323 321 321 321 321 320 320 321 321 319 318 318 317 316 317 316 315 315 314 313 313 312 311 311 311 311 310 309 308 308 307 307 308 306 306 305 304 304 304 303 304 303 303 303 303 303 303 304 304 303 306 306 306 305 304 304 304 307 308 308 309 312 314 315 309 307 308 308 310 312 310 307 307 306 306 305 305 305 304 303 303
323 322 319 320 320 321 321 321 322 321 322 321 321 319 319 318 317 316 316 316 314 314 314 313 313 311 311 311 311 309 309 308 308 307 306 303 300 299 300 299 299 299 298 299 299 299 299 300 300 300 301 301 301 304 306 305 303 303 305 305 303 304 307 309 307 306 308 308 307 308 308 308 308 306 306 307 307 306 306 305 306 306 305 304 303
321 321 322 321 320 319 320 320 320 322 321 319 319 319 320 319 319 317 316 315 315 313 313 313 312 311 310 310 309 309 311 308 301 301 300 300 301 297 297 298 298 298 298 298 299 298 298 299 298 300 299 299 300 301 301 301 301 301 304 305 303 304 304 304 305 307 307 307 308 308 308 309 308 308 310 311 313 308 308 306 307 307 305 304 302
320 321 321 320 320 320 319 319 319 321 318 319 316 310 309 317 318 317 317 316 315 313 311 311 311 310 310 309 310 311 305 304 299 296 295 295 297 299 297 298 298 297 297 296 296 297 297 296 296 297 297 297 297 299 300 301 303 303 303 302 301 302 302 303 304 306 309 308 307 306 307 310 310 309 309 308 311 314 314 313 311 311 308 304 303
321 321 320 320 320 319 318 319 319 320 320 318 308 304 301 300 311 318 316 315 314 313 312 310 309 308 308 307 308 306 304 302 301 296 295 295 294 294 295 297 299 298 296 295 295 295 295 295 295 295 295 295 297 298 299 300 301 301 301 302 302 301 300 299 298 302 308 307 305 304 304 308 309 306 307 308 309 311 316 316 309 307 307 306 303
322 323 322 321 321 320 321 321 320 320 320 312 306 303 301 302 306 317 315 314 313 312 311 310 308 307 306 307 307 309 305 304 304 303 298 295 293 293 293 293 293 293 294 296 295 294 294 293 293 293 294 294 296 296 296 297 299 299 299 300 300 300 300 299 298 298 303 306 303 302 302 305 307 306 305 307 307 308 309 308 307 307 306 305 305
320 319 319 319 320 321 320 319 319 320 321 306 303 301 298 299 301 309 314 314 312 310 309 308 307 307 306 307 307 309 309 308 305 304 302 301 296 294 294 294 293 292 290 290 292 297 296 295 294 294 294 294 294 295 297 298 298 297 297 297 298 299 299 298 299 299 301 303 301 300 300 302 304 303 303 306 308 308 310 306 307 305 304 305 305
316 318 318 318 319 318 318 318 318 319 320 303 299 298 297 297 298 306 312 311 309 309 307 307 307 307 307 305 305 306 305 304 304 304 303 303 303 302 299 297 296 297 294 292 291 291 293 295 296 295 297 298 296 297 299 299 298 296 295 295 296 295 295 296 298 298 301 304 300 299 297 298 301 301 301 303 305 307 307 306 304 304 304 303 304
315 314 314 316 317 317 318 318 317 318 320 298 297 296 296 296 298 304 311 309 307 308 307 307 307 307 307 308 306 304 303 303 305 302 302 302 300 300 299 299 299 299 299 299 298 296 295 295 295 296 297 298 299 299 300 300 297 296 296 295 295 295 295 297 297 298 299 301 300 299 295 298 299 299 300 301 303 304 305 304 303 303 302 303 303
313 313 313 315 315 316 317 316 317 312 302 294 294 294 295 295 298 305 305 305 304 304 305 305 307 307 307 306 304 303 302 302 295 293 296 300 298 298 297 296 297 297 298 299 297 297 299 299 299 299 299 300 298 299 298 296 295 295 296 295 295 294 293 292 292 295 296 299 300 298 296 297 298 299 299 301 303 302 304 304 303 304 304 302 302
313 313 312 312 314 314 314 316 312 302 300 294 292 293 294 296 300 304 304 302 303 304 304 305 305 305 306 304 303 302 303 301 293 290 291 295 298 296 296 295 296 296 296 299 297 295 294 293 293 293 293 293 293 293 294 294 294 294 293 291 291 292 291 290 291 293 294 296 298 299 297 295 298 298 299 301 301 301 302 303 305 303 302 301 301
311 312 313 312 313 313 313 313 305 302 297 293 291 292 293 295 300 303 303 303 304 302 303 305 305 304 304 308 304 302 301 300 289 290 290 295 297 296 295 294 293 293 294 296 297 298 295 294 294 293 292 292 292 292 293 293 293 294 292 289 291 291 290 291 290 292 294 295 296 298 295 295 297 298 298 299 300 301 302 303 305 304 298 298 298
311 312 311 310 310 305 305 303 301 298 294 292 291 290 291 292 299 304 303 302 301 301 299 299 301 302 302 303 301 300 300 294 288 289 289 293 295 295 294 293 292 292 293 294 293 292 292 292 292 293 293 294 295 295 296 295 294 295 293 293 293 291 290 290 291 291 290 292 296 298 294 294 295 297 297 296 295 299 302 303 303 306 303 301 298
Wind_Speed
1 2 2 3 1 2 1 2 2 3 1 1 1 3 3 2 2 4 3 4 4 3 3 2 3 1 2 4 3 2 4 3 2 4 7 7 6 9 14 13 11 10 11 12 11 9 10 8 8 8 8 7 6 5 6 5 5 4 5 5 8 9 8 8 6 7 6 6 6 6 7 7 8 8 9 9 9 10 10 11 11 11 11 12 11
4 3 4 3 3 2 2 1 1 0 2 3 1 3 4 1 4 7 6 8 4 3 3 3 4 4 4 2 4 3 2 5 4 3 7 7 6 8 14 13 12 10 7 10 11 11 11 9 8 9 9 8 7 6 5 5 5 4 5 5 5 6 7 7 7 7 6 6 6 6 6 6 7 7 8 8 9 9 10 10 10 11 11 11 11
3 4 3 3 2 1 1 1 2 0 2 3 6 5 5 3 2 3 4 5 7 5 5 3 3 5 5 4 4 4 3 4 4 4 6 8 7 7 9 14 13 11 8 7 9 12 11 10 9 8 9 8 8 7 7 6 6 6 5 5 5 4 6 8 7 7 7 6 6 5 6 6 6 7 7 7 8 9 9 9 9 9 10 10 10
3 1 3 4 4 4 1 1 2 2 3 1 3 5 8 6 1 5 4 1 6 4 6 2 2 4 3 6 5 4 5 4 4 5 5 7 8 7 7 8 13 13 11 9 6 8 12 11 10 9 9 9 9 8 7 7 7 6 6 6 4 3 5 8 8 6 7 7 6 6 6 6 6 6 7 7 7 7 8 8 9 9 9 10 10
4 4 2 4 5 4 3 2 1 3 5 5 5 5 5 8 4 4 4 4 4 3 2 5 5 5 5 1 5 4 4 3 3 3 5 7 8 9 7 8 8 12 13 11 10 8 11 12 11 10 10 9 9 8 8 8 8 7 7 6 6 5 4 7 9 8 7 7 7 6 6 6 6 6 6 6 6 7 7 7 8 9 8 9 10
1 1 2 2 3 3 1 2 2 2 4 3 3 5 6 6 1 2 7 4 3 4 3 3 3 5 5 5 2 3 3 4 5 3 2 5 9 8 8 7 7 6 7 12 11 9 9 10 12 11 11 11 9 9 8 8 9 8 8 7 7 5 5 7 9 9 8 7 7 7 6 6 6 6 6 6 6 6 7 7 7 7 8 8 9
6 2 4 2 1 5 2 2 3 3 3 4 3 1 2 5 1 2 4 5 3 4 1 1 3 5 7 3 2 4 3 2 5 5 4 2 1 9 8 8 6 7 6 6 9 11 10 8 9 12 11 11 10 9 9 10 9 9 9 8 7 7 6 5 8 9 9 8 8 7 7 6 6 6 6 6 6 6 6 7 7 7 7 8 8
2 6 4 3 2 4 3 2 1 2 2 4 4 4 4 5 2 3 4 5 5 2 1 2 2 4 6 5 5 6 3 6 2 2 4 4 3 2 9 7 8 7 7 6 6 8 12 10 9 11 12 11 11 10 10 11 11 11 10 9 8 8 8 8 7 9 9 9 8 7 7 6 6 6 6 6 6 6 6 6 7 7 8 7 7
1 2 3 4 4 3 3 3 3 2 4 1 3 4 6 5 4 2 2 2 6 3 2 2 0 2 4 5 6 5 5 6 6 5 6 2 4 5 4 9 10 10 8 7 7 7 11 12 11 11 12 9 10 11 10 11 13 12 11 11 10 9 9 9 9 8 9 9 8 8 8 7 7 7 6 7 7 7 7 6 7 7 7 8 8
1 7 1 4 3 4 3 2 4 5 4 2 1 1 3 5 3 1 1 2 2 3 5 5 6 6 5 6 6 7 6 6 6 6 6 7 4 3 4 4 8 10 8 8 8 8 8 12 14 12 11 10 9 11 12 11 12 11 12 12 12 12 11 11 11 10 9 11 10 10 9 7 7 7 7 7 7 7 7 7 7 8 8 7 8
0 1 5 4 8 6 7 5 3 4 1 1 2 2 2 2 4 2 1 0 0 3 3 1 4 1 6 6 6 8 10 7 7 7 6 6 6 7 4 4 2 3 9 8 8 8 8 8 8 7 8 12 10 10 12 12 12 12 12 12 11 13 13 12 12 12 11 11 12 10 10 9 9 9 9 8 8 8 8 8 8 8 8 7 7
4 4 4 5 2 6 5 6 4 3 2 1 0 0 0 2 4 4 1 0 0 2 2 2 2 2 1 3 5 4 6 6 8 7 5 6 6 6 6 3 3 4 4 4 6 8 8 8 7 8 7 10 13 11 13 12 12 12 14 12 12 12 14 13 13 13 13 12 12 12 9 11 10 11 10 9 9 8 8 8 7 7 7 7 7
4 2 1 0 1 2 3 5 5 3 3 1 2 1 0 1 1 1 2 1 0 2 3 4 1 1 3 3 3 3 2 3 5 8 6 7 6 6 6 5 4 3 4 5 5 4 9 8 8 7 7 7 11 14 14 13 12 12 13 14 13 13 15 15 14 14 14 13 12 13 11 11 12 12 11 10 10 9 9 8 8 7 7 7 7
2 1 2 0 3 3 4 3 5 3 2 2 4 1 1 0 0 0 1 3 1 2 3 4 0 2 2 2 0 2 2 2 3 6 9 6 5 3 5 7 5 4 1 2 3 4 7 8 7 8 8 7 8 9 9 10 11 14 13 14 15 15 14 15 15 15 15 15 14 13 12 12 13 14 13 12 11 10 10 9 9 8 8 7 8
3 1 0 6 3 3 3 4 4 4 3 2 3 2 1 1 1 0 0 1 1 1 3 0 1 2 3 2 0 0 1 2 2 4 6 7 5 3 1 2 7 8 8 5 3 3 3 5 8 8 8 8 8 8 9 10 11 15 15 14 14 14 15 14 16 15 15 15 15 14 13 14 15 15 15 14 12 11 10 10 9 9 9 8 8
3 4 6 3 6 5 5 5 3 2 4 4 3 3 3 3 3 2 1 2 1 1 1 3 1 4 2 2 1 1 1 1 0 1 2 3 3 2 3 1 2 3 2 5 8 8 8 5 2 3 5 5 6 6 8 7 13 15 16 16 15 14 14 15 16 17 17 14 15 16 14 16 16 16 15 15 13 12 12 11 11 11 11 10 10
3 4 5 7 5 4 2 1 4 3 5 1 3 3 5 2 3 3 2 2 3 1 2 3 2 1 1 2 1 1 1 1 0 2 0 3 2 0 1 2 3 2 2 2 3 3 4 5 6 5 5 4 2 5 5 7 9 9 12 15 16 16 16 16 17 17 17 18 17 17 16 16 17 16 15 15 14 14 13 12 12 12 12 12 11
6 6 5 3 2 4 5 4 5 5 5 5 6 5 6 4 2 2 4 2 4 3 2 4 4 5 1 1 1 0 1 1 0 1 0 0 2 3 3 2 0 0 2 2 2 3 2 3 4 4 4 3 4 3 5 2 4 4 6 11 18 17 16 16 17 19 18 16 17 18 18 18 17 16 16 15 15 15 15 14 14 13 13 13 13
4 4 3 5 4 3 3 2 2 1 3 4 5 6 5 4 4 3 3 4 2 3 3 3 2 1 2 3 4 3 1 1 1 1 1 2 1 1 2 3 3 2 2 2 2 2 2 1 2 1 3 3 4 3 1 1 2 6 10 13 18 19 18 17 16 18 18 19 17 18 18 18 17 16 15 16 16 16 16 15 15 15 14 14 14
3 3 4 5 3 3 3 4 4 2 5 5 5 6 4 4 6 6 5 5 4 2 2 5 5 2 4 4 3 2 3 3 2 2 1 1 1 0 2 1 1 2 2 2 2 2 2 3 2 2 4 3 2 2 2 1 5 2 1 4 10 17 19 19 18 17 16 16 17 18 18 18 17 15 16 16 16 16 17 17 17 16 15 14 14
4 4 5 3 3 3 3 4 5 6 5 5 4 4 4 5 5 5 5 6 6 5 5 5 4 3 3 3 3 3 4 4 4 4 3 2 2 1 1 0 1 2 0 0 1 2 2 2 2 3 1 1 1 0 0 1 1 4 3 5 2 10 14 17 17 16 16 15 15 15 18 18 18 18 17 17 17 17 17 17 17 17 16 15 15
3 3 3 4 3 3 3 3 3 3 3 3 4 4 4 3 3 4 5 4 4 4 5 5 5 4 4 2 0 3 2 1 0 1 1 0 0 2 2 2 3 2 3 3 3 2 2 2 2 3 3 2 3 2 2 2 3 5 3 5 6 8 11 13 14 14 13 13 11 13 15 18 18 17 19 19 19 19 18 18 19 18 18 16 17
4 2 4 3 3 3 3 3 2 3 4 4 4 3 2 2 3 4 4 4 3 3 3 3 3 4 4 5 4 3 3 2 3 1 1 1 1 2 3 3 4 2 4 5 5 5 4 4 4 4 4 3 4 4 4 4 5 5 9 6 5 5 4 6 9 11 12 12 12 14 15 17 18 18 17 19 21 20 19 20 19 19 18 17 18
3 3 3 3 3 3 2 3 2 2 3 2 2 3 3 4 4 3 2 4 4 5 5 4 5 3 4 4 2 2 5 4 4 4 4 4 4 4 5 5 1 2 1 2 3 3 5 6 5 4 5 5 5 5 5 4 3 9 4 6 3 6 9 10 11 12 13 13 13 14 15 16 17 19 19 20 21 21 22 21 20 20 19 19 19
3 4 3 3 3 2 2 3 3 2 3 3 2 3 4 3 3 4 4 4 4 4 4 3 3 4 2 2 5 6 5 4 4 3 3 3 3 3 5 7 5 5 1 3 3 4 5 6 6 6 6 6 6 5 5 3 4 3 1 7 9 8 10 11 12 12 12 12 12 11 12 13 16 18 20 20 18 20 21 20 18 17 17 16 16
4 4 5 3 4 3 2 3 3 3 2 2 1 1 1 5 3 3 3 2 2 3 3 3 3 4 4 5 4 4 4 3 2 2 1 3 4 5 5 4 4 5 5 4 4 4 2 5 5 5 6 6 5 5 4 4 5 7 9 7 8 10 10 11 12 13 12 12 12 12 12 12 12 12 13 15 14 13 17 16 16 17 17 16 17
5 4 6 4 3 3 3 4 3 2 2 2 2 0 2 4 3 3 3 2 3 4 3 3 3 3 3 3 2 5 3 5 4 4 5 4 3 3 3 4 4 4 5 5 6 3 1 5 7 5 6 5 6 4 5 4 5 9 6 3 3 10 13 12 12 11 11 12 12 13 12 12 11 12 12 13 12 6 6 13 17 17 17 17 17
5 4 6 4 3 3 3 4 3 3 2 2 2 2 0 2 3 2 3 2 2 3 3 3 2 3 2 2 2 3 3 2 4 5 4 4 4 0 1 1 4 4 5 5 6 6 11 8 2 3 7 9 8 4 5 6 4 4 3 3 3 4 8 10 10 9 11 12 12 12 13 12 12 12 12 12 12 11 11 9 12 15 17 18 18
5 5 6 4 4 4 4 5 4 4 4 3 3 3 1 2 4 3 3 2 2 2 2 3 2 2 1 0 1 5 2 1 4 4 4 4 4 4 4 1 2 1 3 4 5 5 7 9 6 6 9 8 7 6 6 3 4 4 2 2 2 2 3 5 6 8 9 10 11 13 14 14 13 13 12 12 12 13 12 12 12 12 15 17 19
4 4 5 4 4 5 4 5 5 4 4 3 3 3 3 2 4 3 3 3 2 2 1 2 3 2 1 2 2 5 2 1 2 1 1 1 2 3 3 4 2 1 2 2 4 3 5 4 5 6 8 8 7 6 5 3 6 3 1 1 2 2 4 6 9 9 9 10 11 12 13 14 14 14 13 14 14 13 12 13 13 13 14 17 18
3 5 5 4 4 4 4 4 5 5 4 3 3 3 3 3 4 3 4 3 3 3 2 3 2 2 2 1 1 2 2 1 2 3 2 1 2 3 4 5 4 3 3 2 3 2 4 5 4 5 7 6 6 6 5 6 8 7 4 3 2 5 1 4 8 10 11 13 13 14 15 15 15 15 14 14 14 14 14 14 14 13 13 15 18
3 4 5 5 4 4 4 4 5 5 5 4 4 3 3 3 5 4 5 4 3 4 3 2 3 2 2 1 1 3 3 2 2 2 0 1 3 1 1 2 3 1 2 2 3 6 3 4 4 5 5 6 7 7 5 5 5 7 5 4 4 6 5 5 8 11 13 14 15 15 16 15 14 14 15 15 15 15 14 14 14 14 13 14 15
4 4 5 5 5 5 5 6 5 6 5 5 4 4 5 4 5 3 5 4 4 4 4 4 3 3 3 2 4 3 2 1 0 2 2 1 2 4 3 2 3 3 2 2 3 5 3 2 5 5 5 4 4 4 6 5 6 6 6 5 5 4 5 6 6 11 14 15 16 17 17 16 15 15 15 14 14 14 14 13 14 14 14 15 15
3 4 6 5 5 6 6 7 6 6 6 6 5 4 5 4 4 4 5 5 4 4 4 5 3 3 3 1 1 5 3 1 2 2 3 4 5 3 0 0 1 1 1 2 2 3 6 3 4 5 6 5 6 4 5 5 5 4 5 4 5 5 5 5 6 4 9 11 13 15 17 17 15 14 13 14 14 14 14 14 13 13 14 15 15
4 4 5 6 7 7 7 6 6 6 6 6 5 5 5 5 5 5 4 5 4 4 5 5 5 4 3 2 1 2 2 1 1 1 1 2 1 2 3 2 2 1 2 2 2 4 6 6 4 6 4 4 3 5 6 5 5 5 6 6 6 6 5 5 6 5 10 12 11 9 12 14 14 15 15 15 16 16 16 15 15 15 15 15 15
5 5 4 6 6 7 7 7 8 7 7 7 7 7 6 5 5 5 4 4 4 4 4 4 4 5 5 4 3 3 3 2 3 2 1 1 2 1 2 3 3 3 2 1 3 3 3 5 3 4 4 5 5 5 7 6 6 5 5 6 5 6 5 6 5 6 5 6 8 8 8 9 10 11 12 12 13 14 15 15 15 16 16 16 16
5 7 6 5 7 7 6 7 7 7 7 7 8 8 7 5 5 5 5 5 4 4 4 4 4 4 6 4 4 3 3 3 1 1 2 1 2 2 2 2 3 2 3 3 4 4 5 6 6 4 5 5 6 7 6 7 5 5 5 6 5 5 5 5 4 6 9 13 14 12 12 12 13 14 15 16 16 16 15 15 15 16 16 17 17
5 7 8 7 10 8 6 7 7 6 7 7 7 6 8 7 5 4 4 5 4 4 4 4 5 3 5 4 3 2 2 2 2 0 0 0 1 2 2 3 3 4 4 4 4 4 5 6 5 6 4 5 4 4 5 6 7 7 6 5 5 5 5 6 6 6 7 8 4 1 5 8 11 14 15 15 16 15 15 15 15 16 16 17 17
2 1 4 1 0 6 8 10 12 8 8 5 4 5 6 7 7 6 4 4 4 4 4 4 4 4 3 3 3 3 2 1 1 1 1 0 0 1 2 2 3 3 3 3 3 4 4 5 6 6 6 6 6 7 5 4 6 5 5 5 5 5 5 6 5 3 3 4 7 11 8 7 9 10 13 16 16 17 17 17 17 17 17 18 17
2 1 3 5 4 6 7 6 6 7 8 10 9 8 6 6 6 7 6 5 4 4 3 3 3 4 4 3 3 3 3 2 1 1 2 3 3 3 3 3 4 4 4 4 4 4 5 5 5 6 4 5 6 5 5 5 5 5 6 5 6 4 5 4 4 6 6 6 7 7 10 12 12 11 14 17 19 20 20 18 18 18 19 18 17
4 4 4 4 5 7 7 5 3 2 2 3 8 9 7 6 6 7 7 7 5 4 3 3 3 3 3 2 2 1 4 6 7 6 4 4 1 1 3 2 3 3 3 4 4 4 5 5 5 5 5 5 5 5 6 4 4 5 4 5 5 6 6 6 7 6 6 6 5 6 6 5 8 8 8 6 7 14 15 18 14 19 19 17 18
4 5 5 4 6 7 6 4 5 5 6 5 8 17 14 4 3 4 6 6 6 4 4 3 3 3 3 3 3 9 8 6 6 5 3 3 4 4 3 3 3 3 3 3 4 4 5 5 5 5 6 6 5 5 5 5 6 6 7 6 6 6 6 6 5 4 4 7 7 7 6 5 6 7 6 8 7 7 8 9 10 13 16 20 19
6 6 7 7 7 7 7 7 6 6 6 7 15 13 10 11 7 3 5 5 6 4 4 4 3 3 3 3 3 7 7 6 5 7 8 9 9 9 9 8 6 4 3 4 4 4 5 6 5 6 7 8 7 6 5 6 5 6 7 7 7 6 5 6 7 3 3 3 4 6 7 5 7 9 9 9 8 8 4 7 13 15 17 17 18
6 6 7 8 8 7 7 8 7 7 7 11 12 7 6 6 6 3 4 5 5 4 3 4 4 3 3 3 3 3 4 4 4 6 8 10 10 10 11 11 12 12 10 7 5 5 5 6 6 6 6 6 6 6 8 8 6 7 7 7 7 7 8 7 6 6 3 8 8 7 7 3 5 6 8 8 8 7 10 12 11 13 15 17 17
4 4 3 5 6 7 6 6 5 6 7 12 14 12 10 8 5 5 3 4 5 5 3 3 3 3 3 3 2 2 1 3 2 2 2 4 10 13 13 11 10 10 11 12 12 9 5 7 7 8 6 7 9 7 5 6 7 9 7 7 6 7 7 8 6 7 8 10 11 9 9 4 5 8 8 6 7 8 10 12 19 15 12 17 18
4 3 5 6 5 4 5 4 5 3 3 10 13 12 12 11 9 6 5 4 4 4 4 3 3 3 2 1 0 1 2 2 3 2 2 3 1 2 4 4 6 9 12 14 15 16 13 9 8 9 6 4 8 7 6 7 7 4 4 5 6 8 8 9 10 11 9 7 8 8 11 7 5 8 11 9 8 9 7 12 16 18 18 14 15
3 4 4 4 4 6 5 5 4 5 2 12 13 13 12 12 12 8 6 6 4 3 3 3 2 1 2 1 0 1 1 3 1 3 2 3 3 3 4 4 4 4 3 4 5 8 9 8 9 10 10 8 8 9 8 3 1 3 3 5 5 7 9 10 11 10 10 7 9 8 14 8 4 9 10 8 8 10 8 10 14 15 16 16 15
4 4 4 4 4 3 5 4 5 2 3 5 10 12 12 12 11 6 6 7 6 4 2 2 1 2 1 2 2 3 3 2 5 6 4 2 1 2 3 4 4 4 5 6 9 8 6 5 6 8 8 8 9 6 4 6 8 7 8 7 6 6 9 10 12 8 9 5 7 9 10 9 3 9 10 7 8 10 9 9 14 19 17 13 15
3 4 4 5 4 5 4 4 3 6 4 3 6 10 11 13 11 5 5 5 4 2 3 3 3 3 2 3 3 3 3 1 7 8 5 5 2 2 3 4 5 5 5 5 8 11 11 12 12 13 14 15 16 17 18 18 12 8 6 7 8 6 10 13 12 10 10 6 6 7 9 12 6 8 10 7 8 9 7 8 8 9 10 9 6
4 3 4 4 5 4 2 4 8 7 6 5 8 10 11 11 7 6 4 4 3 3 3 3 2 2 3 7 5 3 3 2 9 7 8 4 2 2 3 5 5 5 5 5 5 5 8 11 11 10 10 11 13 14 15 16 18 11 6 10 7 5 10 9 13 10 9 7 5 5 9 9 7 7 10 8 7 6 8 9 11 7 2 3 8
4 3 4 6 3 9 7 7 11 11 8 7 10 11 12 10 7 3 4 4 2 2 3 3 3 2 2 1 5 6 2 6 8 7 7 6 2 2 3 3 5 6 6 5 5 6 6 7 7 8 9 10 9 8 8 12 13 11 9 10 6 7 10 9 10 10 11 8 4 6 11 9 8 8 6 8 8 6 6 7 8 5 4 4 3
Wind_Direction
210 87 78 104 188 252 267 117 138 221 260 277 310 300 253 214 338 303 223 250 259 209 203 199 270 219 230 293 295 195 159 141 188 137 129 135 145 155 149 149 160 168 168 165 167 170 172 178 171 171 170 182 190 179 181 176 168 192 147 139 151 141 138 131 129 121 119 112 110 102 96 98 98 97 96 97 95 97 93 91 89 88 85 84 85
192 121 118 135 197 212 188 129 164 59 17 1 357 319 305 42 46 283 346 319 296 243 202 194 213 209 191 233 292 291 190 154 183 174 129 143 145 155 160 156 159 167 175 175 168 173 174 175 181 172 171 175 183 187 191 180 192 186 183 137 127 141 143 137 139 137 127 121 116 116 109 106 106 103 103 102 102 99 101 96 94 93 94 92 89
129 149 149 159 175 226 311 123 280 54 61 352 353 321 303 28 23 33 321 271 280 336 310 237 234 208 171 180 248 251 264 161 162 184 157 147 146 158 166 165 163 168 165 179 174 173 175 174 185 172 171 175 181 184 186 193 200 193 198 161 132 151 162 150 151 146 142 137 133 130 128 121 118 114 111 107 107 105 101 101 102 101 98 96 93
146 107 158 154 175 172 213 226 178 99 91 311 308 341 344 336 168 229 212 17 298 299 294 252 313 282 202 178 196 229 220 166 178 186 178 140 150 159 162 173 173 168 171 171 167 176 175 178 180 175 174 180 180 184 188 189 198 212 194 186 168 164 181 160 154 151 151 149 147 141 143 135 126 129 122 120 117 114 108 106 104 103 103 99 98
170 185 171 192 164 145 170 190 79 81 74 46 2 11 328 285 288 348 250 195 250 284 326 349 313 286 304 217 181 222 196 155 207 225 182 142 155 157 167 173 177 178 173 178 175 177 183 179 180 180 179 184 187 187 189 191 194 203 218 184 179 182 209 178 159 157 158 160 156 156 154 147 143 135 137 132 128 123 121 118 115 106 105 104 103
127 244 169 293 75 104 35 347 45 95 111 130 184 192 221 261 256 86 290 269 179 277 335 350 312 308 284 281 286 232 212 178 185 244 207 175 159 159 164 169 169 173 181 179 179 182 187 191 182 185 181 188 192 190 189 189 195 197 206 199 177 187 213 196 169 166 167 171 167 168 165 162 156 151 145 147 140 135 133 127 123 120 111 110 107
146 61 271 126 114 76 47 335 360 14 87 174 234 329 314 280 271 258 273 265 242 175 202 303 312 305 304 296 296 320 318 273 170 192 206 205 148 151 163 163 163 166 177 176 186 183 189 193 196 182 192 191 194 190 191 183 192 196 200 215 199 196 205 215 197 178 177 172 177 176 176 172 171 163 162 154 152 145 139 137 132 128 125 120 120
157 169 213 176 147 111 108 134 122 317 237 183 161 168 235 250 259 220 252 258 241 178 148 128 279 288 298 337 348 344 325 320 329 219 204 171 219 203 154 159 159 175 175 174 177 189 191 193 196 188 194 200 193 195 192 185 188 194 199 204 207 204 201 210 213 214 191 182 185 183 185 183 181 178 171 168 163 158 152 148 146 142 137 133 128
157 72 312 7 22 68 148 174 129 249 251 228 189 190 175 228 232 247 257 330 327 333 134 81 77 304 315 0 350 340 335 325 334 355 348 278 194 202 177 155 168 171 173 172 176 182 193 193 197 194 200 207 196 201 196 191 194 190 193 200 205 204 206 208 213 219 210 194 192 189 187 195 188 188 185 176 176 173 168 166 160 153 151 146 141
146 129 182 182 131 142 139 178 192 195 211 167 231 207 177 227 233 204 43 37 294 18 34 358 12 333 339 350 345 335 328 339 348 345 334 329 300 218 179 194 162 165 175 171 175 181 183 194 195 198 198 206 204 198 204 199 201 193 198 202 201 201 203 208 206 212 212 207 200 194 191 194 195 199 193 190 185 185 181 178 173 169 163 162 153
119 154 169 169 159 162 170 185 175 175 164 151 203 230 163 240 230 201 108 135 177 66 92 167 113 140 12 342 344 0 348 3 349 338 336 324 324 334 293 196 192 175 174 173 175 173 176 183 190 191 205 203 205 205 207 203 205 203 203 207 208 198 201 206 205 203 210 211 207 198 194 190 194 201 201 197 196 193 195 189 183 182 173 170 168
19 24 25 26 52 153 168 164 168 150 143 141 87 255 282 203 236 261 240 100 101 97 108 119 102 74 78 336 329 27 311 330 338 319 324 318 324 325 314 298 211 195 177 176 182 168 174 173 181 189 198 203 205 205 209 206 204 211 209 210 214 201 200 207 206 204 207 210 209 206 195 191 185 196 204 203 200 199 201 199 196 193 182 180 174
356 7 87 187 252 94 122 141 155 131 124 153 217 221 317 48 296 120 250 227 49 107 72 63 47 108 155 161 229 266 312 20 301 309 310 297 308 314 302 305 312 231 187 178 199 171 160 165 177 184 197 189 201 207 208 210 208 214 214 213 216 218 205 207 205 205 205 211 213 211 202 197 184 190 203 206 205 201 202 202 203 202 193 191 189
80 33 315 65 20 32 79 68 84 111 131 134 114 274 84 219 63 302 222 238 158 113 134 112 84 121 74 63 267 179 187 251 273 283 297 296 305 323 339 339 322 318 291 204 226 205 165 167 174 184 196 196 188 196 206 211 214 213 216 217 222 222 218 208 206 206 205 208 212 211 196 197 187 191 199 206 210 206 204 201 202 205 201 200 197
161 176 112 37 28 50 39 78 109 125 119 114 134 111 99 148 210 94 71 196 100 118 127 111 92 95 99 80 207 336 150 203 218 243 255 272 300 323 10 20 16 11 357 325 259 227 223 179 177 192 190 203 175 187 194 203 207 210 214 217 223 229 234 219 209 210 213 205 207 207 193 198 191 194 198 202 205 208 208 206 204 205 204 206 204
13 69 60 47 25 26 35 21 27 46 124 144 151 149 167 167 130 169 188 148 70 68 122 128 126 130 136 172 157 92 316 167 138 322 268 277 310 337 345 14 21 4 1 23 359 360 353 315 260 198 205 201 158 178 180 194 205 207 212 218 220 221 231 241 228 215 213 211 200 206 197 196 201 197 199 201 202 205 209 210 209 206 208 206 209
33 45 70 59 37 5 19 73 35 16 2 83 138 144 167 160 142 132 114 72 124 112 77 110 175 25 87 97 97 152 207 167 223 229 43 286 284 169 145 351 20 2 343 45 48 31 3 7 13 27 14 4 120 163 179 188 196 205 209 216 219 220 220 226 235 235 228 216 204 205 203 197 200 201 201 201 204 207 208 209 208 208 211 210 210
53 44 45 76 80 28 12 28 54 25 11 19 21 354 47 46 118 114 107 125 120 109 97 43 67 74 28 57 65 77 9 349 12 244 142 301 295 338 28 69 75 305 317 18 40 54 11 9 9 12 17 12 23 48 100 29 313 230 214 207 213 217 222 224 229 232 235 231 213 208 207 200 200 201 201 203 203 206 209 210 209 209 213 213 212
61 72 59 58 54 42 11 27 108 80 58 32 31 28 29 24 19 32 65 142 130 98 113 129 125 101 129 121 146 169 240 335 178 69 316 302 311 333 22 7 360 1 13 357 360 58 39 341 344 27 35 8 10 357 51 246 189 317 227 204 202 210 214 218 225 231 232 232 229 214 211 205 200 200 198 198 201 205 211 213 212 212 214 215 215
94 87 88 64 45 47 31 5 6 81 85 55 44 28 33 26 15 13 26 51 29 78 160 165 155 165 169 163 182 149 150 222 58 109 155 277 274 144 139 79 338 18 3 357 350 18 4 351 336 61 32 359 12 343 3 96 89 167 322 264 218 210 212 215 218 225 232 236 235 232 220 217 207 197 196 197 199 204 209 214 214 216 214 217 218
77 69 73 84 74 56 40 29 23 17 58 65 44 54 52 26 22 20 33 25 15 19 23 34 38 78 154 165 182 181 164 182 209 173 182 183 255 286 295 298 210 210 249 215 4 325 327 344 355 335 293 228 229 245 116 94 177 276 240 44 297 224 221 219 220 222 226 233 238 238 235 226 226 213 204 199 200 201 206 213 216 219 220 220 219
101 102 111 99 106 97 76 48 32 48 76 86 108 70 36 49 48 37 18 51 53 28 30 19 37 20 353 6 7 151 161 172 221 235 192 239 156 278 242 222 261 243 194 204 201 196 238 250 247 255 259 241 234 212 233 222 172 229 112 147 235 217 220 229 227 224 226 231 237 243 244 241 232 229 213 209 203 202 205 209 217 220 221 218 219
95 91 95 98 88 79 77 97 72 32 42 56 62 76 100 109 87 55 41 51 36 52 44 27 37 39 15 20 29 21 32 5 47 3 358 334 285 272 275 212 226 257 225 198 201 207 213 217 227 229 216 228 251 231 217 215 225 157 153 192 248 297 197 212 222 226 228 230 236 241 244 246 243 233 220 211 212 209 208 209 216 220 222 221 218
135 108 106 115 91 76 68 77 65 48 64 53 79 113 104 65 41 68 80 46 35 51 38 31 12 56 37 360 347 27 49 42 12 23 28 10 358 332 319 334 303 228 123 192 239 230 207 221 226 220 216 227 220 226 220 231 154 170 173 170 178 184 175 190 214 216 216 218 224 233 240 244 246 247 240 228 214 214 217 216 217 221 223 223 223
151 138 126 124 112 140 164 116 81 44 52 81 53 60 81 70 74 69 50 60 60 58 65 44 39 21 10 12 18 40 37 28 35 22 26 355 338 326 339 349 344 331 320 163 240 225 212 213 209 209 216 207 219 226 222 202 125 129 202 159 185 186 192 200 202 212 216 220 225 229 235 238 246 248 247 241 232 225 220 214 216 216 219 220 222
157 149 146 161 147 167 155 100 100 106 102 62 53 53 116 129 120 100 97 107 100 81 70 68 41 27 6 52 24 35 12 25 355 341 48 37 20 28 346 335 331 318 313 285 212 203 240 239 221 214 209 208 211 215 205 148 136 167 182 154 186 203 207 204 205 209 212 215 219 227 232 238 239 244 252 256 250 229 217 217 214 211 213 215 217
158 148 147 180 154 151 131 128 135 123 95 120 120 129 319 90 96 92 92 78 71 80 70 56 57 48 34 355 92 68 18 17 348 38 10 33 46 61 10 354 338 325 326 320 317 281 66 217 210 224 227 224 215 208 196 171 160 187 182 176 190 200 211 208 206 206 207 213 218 223 231 236 241 243 242 242 251 260 252 227 214 212 213 214 217
148 154 147 177 161 148 149 140 152 140 155 152 181 144 211 107 106 117 106 103 123 143 140 119 101 90 53 316 66 80 51 18 18 25 26 3 352 132 145 15 6 337 329 331 340 349 17 5 3 28 43 32 11 59 104 112 134 184 195 216 232 246 238 229 213 202 208 214 219 224 230 234 234 235 238 244 244 241 228 226 232 223 213 213 216
152 149 150 177 166 167 168 160 158 168 166 177 194 130 165 157 124 158 147 152 169 80 90 110 164 122 128 321 123 112 73 31 62 23 20 12 345 340 332 317 117 299 345 335 323 350 353 356 347 355 17 10 7 3 14 70 132 164 220 242 260 296 254 221 202 213 216 217 219 225 228 228 230 232 235 237 241 239 233 222 220 222 223 219 215
144 151 147 180 172 182 177 165 169 170 172 178 196 149 179 185 138 175 151 157 127 142 178 134 85 89 54 36 356 102 82 53 93 140 74 14 317 338 334 343 15 335 360 325 310 324 314 336 354 340 348 360 351 357 351 14 168 211 274 325 345 319 166 188 206 213 220 221 227 232 231 228 226 226 227 229 230 232 237 238 228 222 220 222 224
169 146 159 179 185 188 192 179 167 180 174 180 197 150 195 174 143 184 128 159 170 163 154 113 153 127 143 161 292 99 94 60 193 167 159 140 48 340 356 355 350 17 1 336 316 308 357 323 325 336 331 332 346 345 337 335 324 335 331 318 300 302 219 220 220 224 222 221 224 226 228 226 225 224 226 230 230 227 227 231 236 233 229 223 220
194 162 168 188 193 191 202 201 173 180 179 182 187 169 188 200 163 187 156 184 190 161 140 165 167 152 123 176 60 50 60 340 4 44 18 161 151 164 317 315 326 340 352 298 277 286 309 298 305 318 328 330 325 312 311 310 312 342 330 316 307 305 277 274 253 244 239 239 236 234 233 231 227 225 224 226 230 233 228 225 230 234 231 228 226
184 186 175 192 204 202 198 208 198 185 180 186 182 185 182 208 166 212 156 189 203 168 160 171 167 164 179 184 157 138 114 235 279 312 258 224 194 181 197 231 237 242 216 255 280 288 293 324 334 318 315 323 306 301 301 304 301 298 298 291 296 294 278 263 258 260 254 242 239 241 239 234 228 223 221 222 228 233 235 232 229 228 228 226 225
204 194 192 190 210 208 204 208 211 195 187 190 183 189 186 209 176 217 167 179 216 183 169 166 174 184 161 192 201 137 170 81 39 304 13 7 346 325 188 210 311 4 349 344 306 305 298 313 308 320 315 301 284 275 271 276 275 277 276 275 268 262 272 279 280 279 271 275 254 245 243 237 230 223 218 218 222 226 229 231 233 234 235 232 226
268 224 211 195 201 213 209 209 211 206 190 192 181 190 199 205 190 202 182 179 206 205 173 182 174 172 152 183 198 118 114 186 150 307 286 272 311 314 344 356 329 304 286 273 282 286 294 292 295 293 281 282 291 317 312 295 291 290 284 277 273 267 262 261 272 277 266 273 298 287 262 244 224 217 216 217 217 218 220 223 223 225 229 233 233
247 262 233 219 209 210 213 208 213 211 198 190 183 185 201 208 203 198 188 192 200 215 186 186 199 164 166 166 198 152 146 157 206 212 295 260 206 249 347 327 329 303 271 252 232 238 251 278 271 274 288 299 292 289 286 285 283 281 274 278 274 272 261 260 260 267 286 316 291 271 251 245 253 250 238 230 228 224 222 221 222 223 224 226 228
252 275 276 235 230 230 223 222 222 219 209 203 198 184 185 195 209 203 191 196 206 209 198 184 208 167 158 178 181 183 158 165 130 222 225 56 9 7 327 317 302 336 353 349 336 328 316 301 300 295 301 294 288 283 282 289 288 282 295 296 301 299 301 294 294 291 294 291 285 261 243 232 225 225 227 227 224 224 224 224 223 224 225 225 225
244 235 258 325 338 304 293 268 250 238 231 216 204 189 189 192 196 208 202 191 206 209 200 188 198 173 149 163 181 154 133 164 197 150 48 359 7 345 344 340 325 315 301 299 290 279 269 268 272 287 276 286 293 280 288 289 283 283 275 269 267 275 286 295 283 278 275 274 287 263 277 276 263 251 242 234 231 229 228 228 228 228 229 229 228
242 79 56 26 176 312 309 315 293 281 262 240 243 215 202 192 187 191 198 194 197 206 202 194 185 148 146 168 158 153 167 168 168 172 162 106 36 338 334 314 310 324 317 307 300 297 293 288 283 272 275 265 257 272 269 273 285 281 289 296 288 270 255 248 270 288 311 311 317 312 303 273 246 238 238 239 239 236 232 230 229 230 230 230 229
242 183 211 210 211 214 227 230 267 299 331 345 322 271 224 201 190 179 186 193 198 197 200 189 166 152 167 159 153 149 162 182 206 186 83 68 45 2 341 342 333 323 312 305 302 291 287 286 282 289 282 287 286 273 275 276 276 287 268 262 271 295 314 321 323 321 310 308 298 293 291 290 290 268 245 238 235 233 233 234 235 233 232 230 228
198 208 205 210 229 233 234 228 250 56 84 222 253 274 270 223 179 178 183 184 183 184 184 188 162 159 144 143 133 156 102 98 96 94 105 116 95 287 283 299 300 310 308 306 296 291 286 287 289 290 294 293 289 303 311 309 291 281 296 326 303 304 302 304 296 286 277 278 270 273 281 290 289 285 289 274 240 239 243 237 237 233 232 228 226
219 208 206 214 228 232 237 233 212 172 204 227 248 260 264 235 202 203 181 179 169 167 167 176 166 154 158 145 168 119 133 136 135 151 165 174 192 214 243 270 298 310 312 309 304 305 310 301 296 302 298 291 297 302 309 307 310 312 310 303 291 284 287 276 279 265 272 267 271 271 269 257 256 272 269 266 269 228 234 230 228 231 227 224 223
203 214 213 217 223 218 220 225 217 200 203 229 238 240 262 283 283 234 160 152 147 153 155 168 168 159 154 173 162 152 161 164 186 210 224 231 223 224 237 242 234 226 254 262 264 272 278 280 286 292 288 292 294 304 299 305 311 331 334 329 312 309 289 286 281 289 263 326 316 311 302 313 330 314 311 309 307 310 281 247 250 239 238 233 225
216 207 202 218 232 233 228 226 217 206 201 200 209 218 253 248 236 188 134 139 140 149 152 158 155 154 180 188 201 158 171 188 207 214 227 232 230 228 229 229 234 240 232 230 248 263 262 268 272 270 283 283 305 325 314 318 329 345 331 325 318 316 315 306 299 287 315 352 323 308 288 295 289 283 288 289 292 290 290 286 267 249 245 237 231
213 219 243 225 221 224 227 237 232 207 206 186 189 190 187 173 135 117 134 111 122 120 131 150 165 163 179 197 170 158 186 157 172 259 252 220 223 230 228 234 242 242 246 246 243 242 248 254 260 266 262 280 283 283 297 314 333 313 314 309 320 326 326 318 316 327 332 337 326 311 298 309 338 305 292 287 294 297 298 301 301 294 243 243 236
304 270 225 228 234 232 237 249 253 243 194 166 183 183 173 160 141 120 107 101 106 129 144 164 171 164 159 130 148 192 210 217 230 230 222 242 276 198 222 225 236 245 243 243 245 245 244 249 256 261 260 273 276 282 294 308 311 329 349 322 339 323 315 302 306 300 300 313 300 304 289 289 292 288 281 284 283 279 273 275 273 276 280 259 236
268 264 272 255 227 224 222 233 244 256 179 164 180 174 165 151 138 128 121 117 120 131 140 125 134 138 160 166 187 301 312 291 34 72 28 15 7 341 331 316 299 297 292 276 241 234 243 240 242 249 256 256 263 268 273 278 315 274 280 287 292 292 296 297 291 286 290 289 291 293 282 295 274 274 273 280 277 273 275 275 277 278 272 262 239
275 291 288 277 268 243 223 215 244 72 51 169 161 151 146 141 115 89 107 119 118 123 109 123 136 168 196 201 218 237 239 219 113 95 87 64 15 316 298 290 286 280 275 269 275 282 268 241 228 235 241 246 250 256 263 273 281 284 283 282 278 281 286 284 279 289 276 280 268 272 277 283 266 276 279 276 274 275 277 272 280 278 280 263 243
258 250 260 264 257 248 228 225 101 94 96 76 127 132 129 112 91 95 87 88 107 115 159 170 188 191 210 205 212 232 249 159 147 141 161 141 234 276 282 280 274 275 273 279 279 278 277 277 280 283 282 281 279 276 276 271 258 254 273 275 272 274 272 274 273 271 270 272 262 265 276 280 281 272 279 275 273 275 277 278 279 273 279 270 239
262 268 273 280 273 282 280 97 115 115 95 78 107 98 88 80 92 111 120 115 134 158 204 201 179 197 233 226 208 223 234 188 168 167 169 159 224 253 269 277 283 284 286 292 289 288 301 307 315 317 308 301 295 290 284 279 278 268 247 258 264 268 268 265 273 268 270 261 271 311 297 280 309 295 297 294 283 262 262 257 257 247 195 122 127
282 287 275 280 21 51 49 79 97 104 108 99 93 81 69 66 72 100 115 131 102 58 34 33 15 358 352 146 218 233 260 47 87 67 39 6 330 307 296 302 291 287 289 313 330 334 336 330 318 318 310 311 310 304 301 300 284 259 235 245 250 246 260 264 269 281 275 260 231 237 254 272 271 273 283 296 286 284 269 267 263 215 154 124 104